Location: Akgöl Batakl???
(38.9482°N, 31.8837°E)
Time: 11:45:30
(UTC+00:00)

Cosmos 1536 Rocket - Pass Details

Date: 08 May 2026
Orbit: 599 x 624 km, 82.5° (Epoch: 8 June)

Event Time Altitude Azimuth Distance (km) Brightness Sun altitude
Rises 17:34:02 0° 3° (N) 2,870 7.4 -8.2°
Reaches altitude 10° 17:36:28 10° 14° (NNE) 1,966 6.4 -8.6°
Maximum altitude 17:40:19 30° 77° (ENE) 1,090 4.5 -9.2°
Enters shadow 17:43:46 12° 136° (SE) 1,823 5.3 -9.8°
